Altus, OK

5:28 PM CDT on September 21, 2017 (GMT -0500)
Altus Municipal

Weather History for KAXS - October, 2013

Change the Weather History Date:

Sunday, October 27, 2013

  Actual Average (KLTS) Record (KLTS)
Temperature  
Mean Temperature 56 °F -  
Max Temperature 72 °F 67 °F 90 °F (2014)
Min Temperature 40 °F 46 °F 26 °F (1997)
Degree Days  
Heating Degree Days 9    
Growing Degree Days 6 (Base 50)    
Moisture  
Dew Point 37 °F    
Average Humidity 53    
Maximum Humidity 81    
Minimum Humidity 18    
Precipitation  
Precipitation 0.00 in - - ()
Sea Level Pressure  
Sea Level Pressure 30.10 in    
Wind  
Wind Speed 7 mph (WSW)    
Max Wind Speed 13 mph    
Max Gust Speed 17 mph    
Visibility 10 miles    
Events      
Averages and records for this station are not official NWS values.
T = Trace of Precipitation, MM = Missing Value Source: NWS Daily Summary

Daily Weather History Graph

Daily Weather History Graph

Search for Another Location

Airport or City:

Trip Planner

Search our weather history database for the weather conditions in past years. The results will help you decide how hot, cold, wet, or windy it might be!

Date:

Astronomy

Oct. 27, 2013 Rise Set
Actual Time 7:53 AM CDT 6:48 PM CDT
Civil Twilight 7:27 AM CDT 7:14 PM CDT
Nautical Twilight 6:58 AM CDT 7:43 PM CDT
Astronomical Twilight 6:28 AM CDT 8:13 PM CDT
Moon 1:08 AM CDT (10/27) 2:43 PM CDT (10/27)
Length of Visible Light 11h 46m
Length of Day
10h 54m
Last Quarter, 43% of the Moon is Illuminated
Oct 27
Last Quarter
Nov 3
New
Nov 9
First Quarter
Nov 17
Full
Nov 25
Last Quarter

Hourly Weather History & Observations

Time (CDT) Temp. Windchill Dew Point Humidity Pressure Visibility Wind Dir Wind Speed Gust Speed Precip Events Conditions
12:15 AM 54.5 °F - 41.2 °F 61% 30.19 in 10.0 mi North 6.9 mph - N/A   Clear
12:35 AM 53.6 °F - 41.0 °F 62% 30.19 in 10.0 mi North 4.6 mph - N/A   Clear
12:55 AM 52.7 °F - 40.1 °F 62% 30.19 in 10.0 mi North 6.9 mph - N/A   Clear
1:15 AM 51.8 °F - 40.3 °F 65% 30.18 in 10.0 mi NNW 10.4 mph - N/A   Clear
1:35 AM 51.8 °F - 40.1 °F 64% 30.18 in 10.0 mi WNW 5.8 mph - N/A   Scattered Clouds
1:55 AM 50.7 °F - 39.7 °F 66% 30.18 in 10.0 mi WNW 5.8 mph - N/A   Clear
2:15 AM 50.2 °F - 39.2 °F 66% 30.18 in 10.0 mi NNW 8.1 mph - N/A   Clear
2:35 AM 48.7 °F - 39.2 °F 70% 30.18 in 10.0 mi NNW 8.1 mph - N/A   Clear
2:55 AM 48.4 °F - 38.5 °F 69% 30.18 in 10.0 mi NNW 5.8 mph - N/A   Clear
3:15 AM 47.5 °F - 38.5 °F 71% 30.18 in 10.0 mi NNW 6.9 mph - N/A   Clear
3:35 AM 46.4 °F 41.9 °F 38.3 °F 73% 30.17 in 10.0 mi NNW 9.2 mph - N/A   Clear
3:55 AM 46.2 °F 41.7 °F 38.3 °F 74% 30.17 in 10.0 mi NNW 9.2 mph - N/A   Clear
4:15 AM 45.1 °F 42.0 °F 38.3 °F 77% 30.17 in 10.0 mi NNW 5.8 mph - N/A   Clear
4:35 AM 44.4 °F 42.0 °F 37.8 °F 77% 30.17 in 10.0 mi NNW 4.6 mph - N/A   Clear
4:55 AM 44.1 °F 40.1 °F 37.6 °F 78% 30.16 in 10.0 mi North 6.9 mph - N/A   Clear
5:15 AM 44.6 °F 39.2 °F 37.4 °F 76% 30.16 in 10.0 mi North 10.4 mph - N/A   Clear
5:35 AM 45.1 °F 41.4 °F 37.0 °F 73% 30.16 in 10.0 mi NNW 6.9 mph - N/A   Clear
5:55 AM 43.5 °F 39.4 °F 36.5 °F 76% 30.16 in 10.0 mi NNW 6.9 mph - N/A   Clear
6:15 AM 42.8 °F - 36.0 °F 77% 30.16 in 10.0 mi Calm Calm - N/A   Clear
6:35 AM 43.5 °F - 35.4 °F 73% 30.16 in 10.0 mi Calm Calm - N/A   Clear
6:55 AM 41.7 °F 38.0 °F 35.6 °F 79% 30.17 in 10.0 mi NNW 5.8 mph - N/A   Clear
7:15 AM 41.7 °F 38.8 °F 35.6 °F 79% 30.16 in 10.0 mi North 4.6 mph - N/A   Clear
7:35 AM 41.4 °F 38.4 °F 35.1 °F 78% 30.16 in 10.0 mi North 4.6 mph - N/A   Clear
7:55 AM 40.1 °F 34.7 °F 34.7 °F 81% 30.16 in 4.0 mi North 8.1 mph - N/A   Haze
8:15 AM 40.5 °F 36.5 °F 34.7 °F 80% 30.16 in 10.0 mi North 5.8 mph - N/A   Clear
8:35 AM 41.0 °F 35.8 °F 35.2 °F 80% 30.16 in 10.0 mi NNW 8.1 mph - N/A   Clear
8:55 AM 42.8 °F 40.1 °F 35.6 °F 76% 30.17 in 10.0 mi NNW 4.6 mph - N/A   Clear
9:15 AM 45.3 °F 42.3 °F 36.0 °F 70% 30.17 in 10.0 mi North 5.8 mph - N/A   Clear
9:35 AM 47.8 °F - 35.6 °F 63% 30.17 in 10.0 mi NNW 6.9 mph - N/A   Clear
9:55 AM 50.2 °F - 35.4 °F 57% 30.18 in 10.0 mi NW 5.8 mph - N/A   Clear
10:15 AM 52.3 °F - 35.2 °F 52% 30.18 in 10.0 mi NNW 3.5 mph - N/A   Clear
10:35 AM 54.3 °F - 34.9 °F 48% 30.18 in 10.0 mi Calm Calm - N/A   Clear
10:55 AM 55.9 °F - 34.3 °F 44% 30.18 in 10.0 mi Calm Calm - N/A   Clear
11:15 AM 58.3 °F - 34.0 °F 40% 30.17 in 10.0 mi Calm Calm - N/A   Clear
11:35 AM 59.7 °F - 32.9 °F 36% 30.17 in 10.0 mi Calm Calm - N/A   Clear
11:55 AM 61.2 °F - 32.0 °F 33% 30.16 in 10.0 mi Calm Calm - N/A   Clear
12:15 PM 62.6 °F - 28.9 °F 28% 30.16 in 10.0 mi Calm Calm - N/A   Clear
12:35 PM 64.2 °F - 30.0 °F 28% 30.15 in 10.0 mi WSW 3.5 mph - N/A   Clear
12:55 PM 65.3 °F - 28.2 °F 25% 30.14 in 10.0 mi SW 4.6 mph - N/A   Clear
1:15 PM 66.6 °F - 28.6 °F 24% 30.12 in 10.0 mi SW 4.6 mph - N/A   Clear
1:35 PM 66.6 °F - 25.3 °F 21% 30.11 in 10.0 mi SW 6.9 mph - N/A   Clear
1:55 PM 67.8 °F - 25.9 °F 21% 30.10 in 10.0 mi SSW 4.6 mph - N/A   Clear
2:15 PM 68.5 °F - 26.6 °F 21% 30.08 in 10.0 mi SSW 8.1 mph - N/A   Clear
2:35 PM 68.7 °F - 24.4 °F 19% 30.06 in 10.0 mi SSW 3.5 mph - N/A   Clear
2:55 PM 69.6 °F - 23.4 °F 18% 30.05 in 10.0 mi South 4.6 mph - N/A   Clear
3:15 PM 70.5 °F - 25.0 °F 18% 30.04 in 10.0 mi South 4.6 mph - N/A   Clear
3:35 PM 71.1 °F - 26.8 °F 19% 30.03 in 10.0 mi SW 6.9 mph - N/A   Clear
3:55 PM 71.2 °F - 27.9 °F 20% 30.02 in 10.0 mi SSW 5.8 mph - N/A   Clear
4:15 PM 72.0 °F - 28.6 °F 20% 30.01 in 10.0 mi South 9.2 mph - N/A   Clear
4:35 PM 72.1 °F - 29.3 °F 20% 30.00 in 10.0 mi SSE 6.9 mph - N/A   Clear
4:55 PM 72.3 °F - 29.3 °F 20% 30.00 in 10.0 mi SSW 9.2 mph - N/A   Clear
5:15 PM 72.7 °F - 29.7 °F 20% 30.00 in 10.0 mi South 6.9 mph 17.3 mph N/A   Clear
5:35 PM 72.1 °F - 32.0 °F 23% 29.99 in 10.0 mi South 11.5 mph - N/A   Clear
5:55 PM 71.6 °F - 32.7 °F 24% 29.99 in 10.0 mi South 11.5 mph - N/A   Clear
6:15 PM 70.7 °F - 35.8 °F 28% 29.99 in 10.0 mi South 12.7 mph - N/A   Clear
6:35 PM 68.9 °F - 37.0 °F 31% 29.99 in 10.0 mi South 12.7 mph - N/A   Clear
6:55 PM 66.4 °F - 39.7 °F 38% 29.98 in 10.0 mi SSE 9.2 mph - N/A   Clear
7:15 PM 63.1 °F - 41.4 °F 45% 29.98 in 10.0 mi SSE 8.1 mph - N/A   Clear
7:35 PM 61.2 °F - 42.1 °F 50% 29.99 in 10.0 mi SSE 9.2 mph - N/A   Clear
7:55 PM 61.0 °F - 43.3 °F 52% 29.99 in 10.0 mi SSE 9.2 mph - N/A   Clear
8:15 PM 61.3 °F - 43.9 °F 53% 29.99 in 10.0 mi SSE 10.4 mph - N/A   Clear
8:35 PM 60.3 °F - 44.8 °F 57% 29.99 in 10.0 mi SSE 10.4 mph - N/A   Clear
8:55 PM 60.1 °F - 45.7 °F 59% 29.99 in 10.0 mi SSE 10.4 mph - N/A   Clear
9:15 PM 59.5 °F - 46.4 °F 62% 29.99 in 10.0 mi SE 10.4 mph - N/A   Clear
9:35 PM 58.8 °F - 46.6 °F 64% 29.99 in 10.0 mi SSE 9.2 mph - N/A   Clear
9:55 PM 57.9 °F - 46.8 °F 66% 29.99 in 10.0 mi SSE 9.2 mph - N/A   Clear
10:15 PM 58.1 °F - 47.7 °F 68% 30.00 in 10.0 mi SSE 11.5 mph - N/A   Clear
10:35 PM 57.6 °F - 47.8 °F 70% 30.00 in 10.0 mi SE 11.5 mph - N/A   Clear
10:55 PM 57.6 °F - 48.4 °F 71% 30.00 in 10.0 mi SSE 12.7 mph - N/A   Clear
11:15 PM 57.4 °F - 48.7 °F 73% 30.00 in 10.0 mi SE 10.4 mph - N/A   Clear
11:35 PM 56.3 °F - 49.1 °F 77% 30.01 in 10.0 mi SE 10.4 mph - N/A   Clear
11:55 PM 55.8 °F - 49.6 °F 80% 30.00 in 10.0 mi SE 9.2 mph - N/A   Clear